This demonstration page uses our WeatherBlox Daily Observations layout. Learn more.

Left ArrowRight Arrow

44.31136, -96.79839

Hourly Observations for August 19, 2017

Temp ( °F °C ) Dew Point ( °F °C ) Humidity (%) Winds ( mph kmh ) Pressure ( in mb ) Visibility ( mi km ) Precip ( " mm )
12:56 am 00:56 Clear 59 15 58 14.4 96 96 W 3 6 30.00 1016 N/A 0.00 0.00
1:56 am 01:56 Clear 58 14.4 57 13.9 97 97 Calm 29.98 1015 N/A 0.00 0.00
2:56 am 02:56 Clear 59 15 58 14.4 96 96 Calm 29.96 1015 N/A 0.00 0.00
3:56 am 03:56 Clear 54 12.2 54 12.2 100 100 Calm 29.97 1015 N/A 0.00 0.00
4:16 am 04:16 Partly Cloudy 54 12 54 12 100 100 Calm 29.94 1014 N/A 0.00 0.00
4:36 am 04:36 Mostly Cloudy 54 12 54 12 100 100 Calm 29.94 1014 N/A 0.00 0.00
4:48 am 04:48 Mostly Clear 54 12 54 12 100 100 Calm 29.94 1014 N/A 0.00 0.00
4:56 am 04:56 Mostly Clear 54 12.2 53 11.7 97 97 Calm 29.98 1015 N/A 0.00 0.00
5:10 am 05:10 Mostly Cloudy 54 12 54 12 100 100 Calm 29.94 1014 N/A 0.00 0.00
5:56 am 05:56 Cloudy 54 12.2 53 11.7 97 97 Calm 29.98 1015 N/A 0.00 0.00
6:18 am 06:18 Mostly Clear 54 12 54 12 100 100 Calm 29.97 1015 N/A 0.00 0.00
6:56 am 06:56 Sunny 54 12.2 53 11.7 97 97 E 3 6 29.99 1016 N/A 0.00 0.00
7:56 am 07:56 Sunny 56 13.3 55 12.8 97 97 Calm 30.01 1016 N/A 0.00 0.00
8:30 am 08:30 Partly Cloudy 55 13 55 13 100 100 SE 5 7 29.97 1015 N/A 0.00 0.00
8:43 am 08:43 Mostly Cloudy 57 14 55 13 94 94 SE 6 9 29.97 1015 N/A 0.00 0.00
8:56 am 08:56 Cloudy 58 14.4 58 14.4 100 100 SE 6 9 30.01 1016 N/A 0.00 0.00
9:13 am 09:13 Partly Cloudy 59 15 57 14 94 94 SE 6 9 29.94 1014 N/A 0.00 0.00
9:56 am 09:56 Sunny 64 17.8 61 16.1 90 90 SSE 6 9 30.00 1016 N/A 0.00 0.00
10:56 am 10:56 Sunny 67 19.4 62 16.7 84 84 SSE 7 11 29.99 1016 N/A 0.00 0.00
11:56 am 11:56 Sunny 72 22.2 63 17.2 73 73 S 10 17 29.98 1015 N/A 0.00 0.00
12:56 pm 12:56 Sunny 74 23.3 63 17.2 69 69 S 13 20 29.96 1015 N/A 0.00 0.00
1:56 pm 13:56 Sunny 76 24.4 61 16.1 60 60 S 13 20 29.95 1014 N/A 0.00 0.00
2:56 pm 14:56 Sunny 77 25 61 16.1 58 58 SSE 13 20 29.92 1013 N/A 0.00 0.00
3:56 pm 15:56 Sunny 78 25.6 63 17.2 60 60 SSE 13 20 29.90 1013 N/A 0.00 0.00
4:56 pm 16:56 Sunny 78 25.6 63 17.2 60 60 SSE 15 24 29.88 1012 N/A 0.00 0.00
5:56 pm 17:56 Sunny 78 25.6 63 17.2 60 60 SSE 15 24 29.88 1012 N/A 0.00 0.00
6:56 pm 18:56 Sunny 76 24.4 64 17.8 67 67 SSE 9 15 29.87 1012 N/A 0.00 0.00
7:56 pm 19:56 Sunny 73 22.8 64 17.8 74 74 SSE 8 13 29.87 1011 N/A 0.00 0.00
8:56 pm 20:56 Clear 71 21.7 65 18.3 81 81 SSE 15 24 29.86 1011 N/A 0.00 0.00
9:56 pm 21:56 Clear 70 21.1 64 17.8 82 82 S 9 15 29.90 1013 N/A 0.00 0.00
10:56 pm 22:56 Clear 69 20.6 64 17.8 84 84 SSE 12 19 29.88 1012 N/A 0.00 0.00
11:56 pm 23:56 Clear 68 20 64 17.8 87 87 SSE 12 19 29.87 1012 N/A 0.00 0.00

Powered by AerisWeather